Wind_Speed
11 10 8 7 8 9 14 12 12 12 13 16 16 16 15 16 15 12 13 16 19 16 15 13 14 14 13 12 14 11 8 7 7 8 7 7 7 10 15 17 16 17 19 23
11 10 9 7 9 10 11 11 10 16 13 13 12 10 13 13 12 11 13 15 16 22 22 17 18 17 13 12 15 11 9 9 9 11 8 8 8 8 15 12 14 19 21 23
11 11 11 9 10 11 11 13 12 16 14 11 11 9 13 15 15 13 12 14 13 16 16 19 18 17 14 15 15 13 11 12 14 15 14 10 12 12 13 14 16 18 20 21
12 14 13 11 13 13 12 13 14 10 10 6 6 12 21 13 17 16 12 14 14 11 12 18 17 16 16 16 14 13 11 13 14 16 16 13 13 14 13 12 16 14 14 17
13 15 13 13 14 15 14 15 12 9 8 10 9 13 14 15 22 18 18 11 17 19 14 16 20 19 16 13 15 13 11 11 13 14 15 13 13 14 14 14 15 14 13 13
15 16 15 15 18 16 17 16 13 10 8 9 10 11 12 11 10 14 20 20 17 18 17 13 21 19 15 13 13 12 13 13 12 13 14 16 14 16 16 16 17 17 15 14
14 13 16 17 18 17 16 16 8 9 11 9 7 17 15 18 18 16 21 19 19 20 16 11 17 21 18 15 16 15 14 15 14 13 13 15 16 17 17 16 16 15 14 13
9 10 20 14 15 18 19 15 12 8 9 12 19 17 10 13 10 16 19 21 19 18 19 16 11 17 21 17 20 16 16 14 18 16 15 14 15 16 18 18 17 16 14 13
7 9 17 14 14 17 17 16 13 18 18 19 15 15 17 14 10 9 13 21 18 17 19 18 16 12 21 17 18 17 18 15 12 16 18 18 14 14 15 17 18 16 17 16
14 14 13 14 13 16 17 16 11 15 15 15 12 15 16 13 8 15 11 18 19 19 17 18 13 13 23 16 12 14 17 17 12 14 20 16 12 10 10 12 15 16 16 15
16 18 14 20 15 12 15 16 20 17 19 16 13 10 18 18 14 14 12 15 17 17 18 18 15 14 16 21 16 13 11 16 13 10 17 24 20 11 11 13 13 14 16 16
20 19 20 20 18 17 16 17 17 19 16 10 13 12 19 16 14 16 19 18 20 14 15 17 19 16 18 20 17 14 15 16 13 10 7 11 12 11 12 12 14 16 16 15
26 25 24 23 18 23 24 22 20 19 19 21 18 12 10 8 15 18 24 20 19 14 15 15 15 15 18 20 24 21 15 17 13 13 14 16 15 17 18 17 15 14 17 16
34 33 27 25 19 37 33 25 24 24 23 20 20 17 17 16 16 11 22 21 18 15 17 18 16 13 13 18 23 24 23 20 18 15 16 18 18 17 17 18 17 17 18 18
39 41 39 36 31 31 38 21 18 23 25 28 23 24 25 12 13 13 15 22 20 17 14 12 11 12 12 14 20 22 22 21 18 14 15 16 17 15 15 17 17 17 17 19
42 45 43 45 42 36 36 31 27 28 29 28 28 35 27 20 17 12 25 23 22 18 16 10 8 6 8 9 11 12 14 15 15 16 15 15 15 16 16 17 17 18 19 20
48 44 46 48 43 41 43 39 38 36 32 32 32 26 33 29 21 20 29 22 22 22 19 13 9 5 4 2 4 8 12 14 15 16 16 16 16 15 17 17 17 17 19 19
50 49 50 52 45 48 42 35 33 36 35 35 37 28 35 37 24 22 26 26 25 24 19 17 13 11 7 7 8 8 10 12 13 15 16 17 18 16 16 17 17 17 18 20
44 48 50 52 52 52 43 34 33 35 43 38 42 33 31 36 34 28 29 23 24 27 22 19 18 14 13 13 12 11 12 16 16 16 17 19 19 19 17 17 17 17 19 19
35 40 46 44 46 53 42 33 37 42 42 48 45 38 39 29 43 21 25 23 22 26 27 25 23 19 16 19 16 15 16 17 17 18 18 19 19 18 17 18 18 19 18 16
25 26 35 37 42 47 41 41 36 47 44 41 44 45 39 48 41 40 32 27 25 28 30 29 28 25 19 23 20 18 19 18 17 17 15 16 17 18 19 20 20 21 19 19
27 26 29 31 36 42 36 40 47 46 35 52 43 44 41 50 48 43 31 29 30 28 31 30 29 26 23 22 21 21 20 20 18 18 16 15 17 18 20 20 20 19 21 21
28 26 28 32 35 33 43 49 51 58 54 41 49 49 42 47 50 44 35 33 28 27 29 32 33 30 28 29 25 25 23 21 19 21 19 19 20 21 21 19 18 19 20 21
30 31 34 35 38 43 47 45 38 42 50 49 44 40 48 45 50 45 45 36 37 35 29 29 30 30 34 33 30 29 27 22 22 23 24 23 23 23 22 20 19 18 20 21
30 34 33 32 30 35 42 41 48 57 49 49 51 54 46 46 47 46 43 40 35 37 32 31 29 28 34 35 33 31 30 24 22 23 25 26 25 25 25 24 23 23 25 26
26 30 35 37 32 36 39 45 56 24 44 44 48 47 51 49 46 46 44 39 37 40 37 34 30 28 33 35 33 29 28 24 22 20 21 22 25 28 29 30 30 29 29 30
Wind_Direction
249 252 269 278 260 241 254 270 270 285 281 280 286 284 290 299 298 277 273 250 260 256 245 248 243 233 222 236 228 227 237 242 255 234 200 202 198 210 206 190 194 193 191 185
250 251 257 266 272 280 276 269 270 284 281 286 286 291 297 298 288 279 266 268 278 267 258 245 246 240 227 220 217 224 242 253 244 219 192 183 200 198 182 194 197 192 186 186
255 247 253 252 262 272 272 268 253 261 276 293 299 309 292 288 285 274 278 276 273 278 252 231 243 243 237 228 218 224 242 255 248 240 240 222 209 207 202 206 193 190 192 195
264 250 252 250 257 267 264 270 268 274 273 279 275 271 324 302 286 283 276 272 289 302 284 252 229 236 238 237 235 235 247 252 245 239 246 243 227 219 208 201 193 193 202 212
257 252 258 259 260 268 269 244 283 265 279 289 305 291 267 290 296 306 285 272 294 300 293 259 227 232 233 235 231 234 237 250 242 240 247 237 233 209 206 202 204 211 209 212
256 256 260 252 261 271 269 273 270 270 300 289 278 255 259 283 260 264 269 295 292 293 304 278 229 236 240 235 233 234 244 234 238 242 245 240 224 207 206 209 213 214 220 221
261 263 256 252 262 268 264 262 256 288 266 281 257 264 267 247 251 268 268 289 292 289 289 293 240 244 242 237 230 234 243 237 231 234 233 237 232 223 224 220 220 226 223 220
279 297 286 259 257 259 256 248 227 251 249 244 288 293 289 273 258 264 283 283 284 285 275 276 274 291 222 241 237 234 234 263 238 236 229 228 230 230 228 226 225 226 226 228
242 283 254 276 254 254 252 259 244 247 263 273 280 288 287 281 261 268 293 282 279 274 268 281 289 291 231 248 239 244 237 263 229 238 242 236 226 222 231 232 232 225 225 216
241 231 271 270 259 259 248 231 251 260 267 280 292 278 283 258 235 231 267 280 270 261 267 268 284 281 239 226 236 245 248 245 256 262 243 228 233 225 231 237 237 235 235 230
247 248 241 266 267 247 250 243 239 234 234 258 280 281 258 265 252 260 257 264 268 266 259 259 266 266 255 241 228 246 256 229 257 271 289 224 221 222 243 247 245 240 239 238
252 251 258 255 268 277 237 248 245 245 264 267 261 264 266 281 250 255 266 278 270 266 253 253 262 259 246 239 250 260 244 244 245 255 251 214 223 231 247 257 252 241 239 240
248 252 253 249 249 249 248 247 236 242 250 250 254 255 253 261 297 290 264 272 275 272 239 245 254 255 237 228 220 227 221 232 240 245 239 240 242 251 259 255 256 250 246 241
247 244 244 242 250 248 226 246 238 241 247 251 253 249 255 273 288 284 278 255 268 247 246 252 252 259 243 227 224 231 236 247 259 245 241 241 247 248 261 263 259 250 250 256
250 244 242 244 236 256 270 267 230 231 245 244 250 244 262 246 257 262 258 264 257 262 243 241 241 238 248 245 242 247 252 254 248 246 239 237 241 247 254 259 262 264 261 258
247 252 248 244 242 244 242 252 252 255 251 260 254 245 245 261 274 243 252 262 250 239 248 256 241 234 230 241 247 245 242 243 238 236 235 235 240 248 256 264 268 270 270 271
257 251 250 252 247 248 248 242 242 248 250 254 254 258 255 234 246 261 264 255 238 235 239 226 226 236 222 252 267 257 246 242 247 244 238 236 240 249 261 266 272 270 273 275
253 253 250 251 250 246 248 245 247 250 251 252 251 251 269 250 224 242 250 245 228 225 226 232 238 240 281 283 279 282 263 255 253 249 243 244 245 252 257 264 266 270 273 277
253 250 249 248 249 251 246 243 245 243 248 247 248 238 253 257 224 241 222 221 225 231 234 231 232 239 258 264 264 264 268 254 255 253 248 247 245 246 252 260 265 267 269 268
254 251 248 247 249 247 247 244 239 235 245 239 241 234 221 260 237 224 238 224 227 226 236 243 245 250 258 259 258 265 265 252 249 256 254 251 245 246 256 262 263 265 265 266
251 257 249 249 252 250 246 225 242 239 244 243 245 241 230 241 232 225 222 219 221 230 228 233 242 246 246 258 251 263 262 258 249 249 248 251 247 247 255 259 257 258 262 265
258 253 251 254 247 253 242 242 230 240 231 235 237 233 225 232 243 212 211 217 214 227 233 239 244 244 236 251 254 257 265 259 256 253 250 249 252 257 261 259 259 263 266 271
263 255 248 233 250 247 239 234 235 234 231 234 238 234 227 223 235 236 212 223 239 234 240 238 244 244 240 248 256 259 259 257 252 252 252 255 259 259 256 257 261 267 273 278
254 257 253 254 244 239 245 241 234 237 235 236 231 226 224 221 224 232 216 214 224 234 238 242 245 241 240 244 246 255 254 258 258 250 251 252 255 259 258 261 268 273 278 282
266 262 268 264 258 246 248 246 237 240 231 236 234 229 222 221 215 223 230 213 220 233 234 237 240 239 237 237 241 249 250 263 268 257 255 255 258 262 264 265 266 270 275 280
265 262 258 259 256 246 236 236 232 225 227 229 226 224 218 213 212 213 218 228 216 229 231 235 235 239 235 239 241 251 250 265 268 271 269 269 270 271 270 270 271 273 276 280
Height
5893 5894 5895 5895 5897 5896 5896 5894 5893 5893 5890 5890 5889 5890 5889 5887 5888 5889 5887 5889 5889 5889 5890 5890 5891 5890 5890 5891 5894 5896 5897 5899 5900 5900 5900 5901 5902 5902 5903 5905 5907 5910 5913 5916
5892 5892 5893 5894 5894 5894 5893 5892 5892 5892 5889 5889 5888 5888 5887 5886 5886 5887 5887 5886 5885 5886 5887 5889 5889 5889 5889 5890 5892 5894 5896 5897 5899 5900 5900 5900 5902 5903 5904 5905 5907 5909 5912 5915
5888 5890 5891 5891 5891 5891 5891 5890 5891 5890 5887 5887 5888 5888 5887 5885 5884 5884 5884 5884 5883 5883 5884 5885 5887 5888 5888 5889 5890 5893 5895 5896 5897 5898 5899 5900 5901 5902 5904 5905 5907 5910 5912 5914
5886 5886 5888 5888 5888 5888 5888 5889 5887 5886 5886 5887 5881 5888 5883 5885 5882 5881 5882 5882 5881 5883 5882 5882 5883 5886 5887 5888 5889 5890 5892 5894 5896 5896 5898 5900 5901 5903 5905 5906 5909 5911 5913 5914
5884 5883 5884 5885 5885 5885 5886 5886 5885 5884 5884 5886 5890 5890 5892 5885 5881 5879 5879 5880 5880 5878 5880 5880 5882 5883 5884 5886 5887 5889 5891 5893 5894 5896 5898 5899 5901 5902 5904 5906 5908 5910 5912 5914
5880 5880 5881 5881 5881 5882 5882 5882 5882 5882 5883 5887 5889 5891 5890 5888 5882 5881 5879 5878 5879 5878 5877 5877 5879 5881 5884 5884 5886 5888 5890 5892 5893 5895 5897 5898 5900 5902 5903 5905 5907 5909 5910 5912
5876 5877 5877 5877 5878 5878 5879 5879 5882 5887 5888 5889 5885 5885 5885 5883 5881 5880 5876 5877 5877 5877 5876 5876 5877 5878 5880 5882 5883 5885 5887 5890 5891 5893 5895 5896 5899 5901 5903 5904 5906 5908 5909 5910
5876 5879 5872 5873 5874 5875 5875 5877 5884 5887 5889 5889 5883 5882 5883 5878 5876 5874 5873 5873 5873 5874 5874 5875 5875 5874 5875 5879 5881 5882 5884 5887 5889 5890 5892 5894 5897 5899 5901 5903 5905 5906 5908 5911
5873 5874 5869 5869 5869 5871 5873 5873 5877 5880 5882 5882 5883 5881 5878 5874 5871 5874 5873 5868 5869 5869 5870 5870 5871 5872 5873 5875 5878 5880 5882 5884 5885 5887 5889 5891 5893 5895 5898 5900 5902 5904 5905 5908
5867 5870 5870 5866 5865 5866 5868 5874 5875 5875 5876 5876 5878 5877 5876 5872 5871 5871 5871 5865 5866 5867 5867 5867 5868 5869 5869 5871 5874 5877 5880 5882 5883 5884 5887 5888 5891 5893 5896 5898 5900 5901 5903 5905
5862 5863 5866 5864 5862 5863 5863 5864 5866 5871 5872 5873 5875 5877 5869 5866 5866 5864 5866 5864 5863 5864 5864 5864 5865 5866 5866 5868 5871 5873 5876 5879 5881 5882 5881 5882 5888 5891 5894 5895 5897 5898 5900 5901
5858 5859 5860 5862 5863 5859 5860 5862 5862 5864 5867 5867 5869 5871 5868 5863 5863 5860 5860 5861 5860 5861 5861 5861 5861 5862 5863 5865 5868 5870 5873 5877 5879 5880 5881 5883 5886 5888 5890 5892 5893 5895 5896 5897
5850 5851 5852 5856 5861 5860 5858 5859 5861 5863 5865 5865 5864 5868 5858 5861 5857 5856 5857 5857 5857 5857 5857 5857 5857 5858 5858 5861 5864 5868 5870 5873 5875 5877 5878 5881 5882 5884 5886 5888 5889 5890 5892 5894
5840 5843 5846 5850 5855 5845 5848 5851 5853 5856 5857 5860 5860 5861 5861 5858 5855 5856 5851 5852 5853 5853 5853 5853 5854 5854 5854 5855 5858 5861 5865 5867 5869 5872 5875 5877 5878 5879 5881 5883 5884 5885 5886 5888
5830 5830 5833 5835 5840 5843 5837 5836 5839 5847 5852 5851 5855 5856 5853 5847 5853 5854 5852 5848 5848 5850 5850 5849 5849 5851 5851 5852 5854 5856 5858 5861 5864 5866 5870 5872 5873 5875 5877 5878 5879 5880 5881 5882
5819 5818 5821 5822 5827 5831 5834 5837 5838 5842 5843 5842 5843 5844 5847 5845 5845 5842 5845 5843 5844 5846 5846 5847 5846 5847 5848 5850 5851 5853 5856 5858 5860 5863 5865 5867 5869 5871 5872 5873 5874 5876 5876 5876
5805 5808 5807 5808 5815 5818 5819 5826 5829 5833 5835 5837 5838 5836 5838 5838 5841 5841 5840 5838 5839 5841 5842 5843 5845 5845 5846 5848 5849 5851 5853 5855 5857 5859 5861 5863 5865 5867 5868 5869 5870 5870 5871 5871
5791 5793 5795 5796 5799 5796 5808 5817 5820 5821 5824 5828 5829 5830 5824 5831 5832 5832 5833 5831 5832 5835 5838 5840 5841 5843 5844 5846 5848 5849 5850 5852 5854 5855 5857 5859 5861 5862 5864 5865 5866 5866 5866 5867
5776 5777 5777 5780 5783 5787 5794 5803 5808 5810 5810 5816 5817 5822 5825 5819 5826 5824 5816 5824 5824 5830 5833 5836 5838 5840 5842 5844 5845 5845 5846 5847 5849 5851 5853 5854 5856 5858 5859 5860 5861 5862 5863 5863
5761 5763 5764 5768 5767 5769 5785 5793 5788 5789 5790 5800 5802 5807 5811 5796 5810 5799 5811 5820 5819 5825 5829 5831 5834 5836 5838 5839 5841 5841 5842 5843 5844 5846 5847 5849 5850 5852 5854 5856 5857 5859 5859 5858
5751 5751 5751 5754 5754 5757 5768 5774 5772 5777 5784 5782 5787 5792 5801 5797 5799 5799 5806 5811 5817 5820 5823 5826 5828 5831 5834 5835 5836 5837 5838 5839 5840 5841 5843 5844 5846 5848 5850 5852 5853 5854 5854 5855
5738 5741 5744 5747 5747 5746 5754 5754 5760 5761 5761 5768 5773 5778 5785 5787 5782 5790 5796 5806 5811 5815 5818 5822 5824 5826 5829 5830 5832 5833 5834 5834 5835 5837 5838 5840 5843 5844 5846 5847 5847 5847 5848 5849
5727 5729 5730 5734 5729 5736 5733 5737 5741 5744 5750 5751 5761 5767 5773 5776 5777 5783 5788 5797 5803 5807 5811 5815 5817 5821 5824 5824 5826 5828 5829 5830 5831 5833 5834 5836 5838 5839 5841 5841 5841 5842 5842 5842
5715 5714 5714 5715 5720 5721 5718 5724 5728 5732 5737 5738 5747 5754 5761 5765 5769 5775 5779 5783 5795 5800 5804 5808 5810 5813 5815 5818 5821 5822 5824 5826 5827 5828 5830 5832 5833 5835 5835 5836 5835 5836 5837 5837
5705 5702 5703 5702 5704 5707 5710 5712 5714 5716 5721 5728 5737 5743 5749 5755 5759 5765 5768 5777 5785 5792 5797 5800 5803 5807 5809 5812 5814 5817 5819 5822 5823 5824 5826 5828 5829 5830 5830 5830 5830 5831 5831 5830
5693 5692 5690 5689 5692 5692 5695 5696 5696 5681 5703 5711 5721 5729 5737 5745 5751 5757 5763 5768 5774 5782 5788 5792 5797 5801 5803 5805 5808 5812 5816 5818 5819 5820 5821 5822 5823 5824 5824 5824 5824 5824 5824 5823